Regional Weather Roundup
Issued by NWS Albany, NY

Home | Current Version | Previous Version | Graphics & Text | Print | Product List | Glossary On
Versions: 1 2 3 4 5 6 7 8 9 10 11 12 13 14 15 16 17 18 19 20 21 22 23 24 25 26 27 28 29 30 31 32 33 34 35 36 37 38 39 40 41 42 43 44 45 46 47 48 49 50
000
ASUS41 KALY 211410
RWRALY

NEW YORK STATE HOURLY WEATHER ROUNDUP
NATIONAL WEATHER SERVICE ALBANY NY
900 AM EST TUE FEB 21 2017

NOTE: "FAIR" INDICATES FEW OR NO CLOUDS BELOW 12,000 FEET WITH NO
SIGNIFICANT WEATHER AND/OR NO OBSTRUCTIONS TO VISIBILITY.

NYZ032-033-038>043-046>054-057>066-NYZ062>081-082-084-211500-
EAST


CITY           SKY/WX    TMP DP  RH WIND       PRES   REMARKS
ALBANY         PTSUNNY   27  17  66 CALM      30.37S
GLENS FALLS    MOSUNNY   27  18  69 CALM      30.36S
POUGHKEEPSIE   CLOUDY    29  17  61 CALM      30.38F
NEWBURGH       PTSUNNY   30  18  59 CALM      30.37F
MONTGOMERY     CLOUDY    31  17  56 CALM      30.36F
WHITE PLAINS   MOSUNNY   36  14  40 VRB7      30.36F WCI  30
ISLIP          MOSUNNY   38  21  50 CALM      30.39R
NEW YORK CITY  CLOUDY    39  21  48 NE8       30.38F WCI  33
CENTRAL PARK   MOSUNNY   39  19  44 E6        30.40F WCI  35
$$

NYZ005>009-017-018-044>046-055-056-211500-
CENTRAL


CITY           SKY/WX    TMP DP  RH WIND       PRES   REMARKS
FULTON         CLOUDY    33  16  49 SE8G20    30.17F WCI  26
SYRACUSE       CLOUDY    31  18  58 E10       30.19F WCI  22
ROME           CLOUDY    29  16  58 E12       30.28F WCI  19
ELMIRA         CLOUDY    35  23  61 VRB3      30.21F
BINGHAMTON     CLOUDY    29  12  49 S12       30.21F WCI  19
MONTICELLO     MOSUNNY   27  16  63 E5        30.32S WCI  21
$$

NYZ026>034-041>043-087-211500-
NORTH


CITY           SKY/WX    TMP DP  RH WIND       PRES   REMARKS
WATERTOWN      CLOUDY    32  24  72 E6        30.16F WCI  26
FORT DRUM      NOT AVBL
OGDENSBURG     FAIR      30  19  65 CALM      30.21S
MASSENA        CLOUDY    24  17  74 E6        30.23F WCI  17
SARANAC LAKE   CLOUDY    18  11  74 CALM      30.17F
PLATTSBURGH    MIX PCPN  28  20  71 SE14      30.27F WCI  17
$$

NYZ001>004-010>016-019>021-085-211500-
WEST


CITY           SKY/WX    TMP DP  RH WIND       PRES   REMARKS
NIAGARA FALLS  CLOUDY    43  24  47 SE8       30.03F
BUFFALO        CLOUDY    43  24  47 S7        30.05F
DUNKIRK        CLOUDY    51  27  39 MISG      30.03F
JAMESTOWN      CLOUDY    39  19  45 S15G23    30.06F WCI  31
WELLSVILLE     CLOUDY    40  16  37 VRB7      30.13F
ROCHESTER      CLOUDY    41  19  41 S10       30.08F
PENN YAN       CLOUDY    38  13  35 S15G24    30.15F WCI  29
$$

             KEY
       WCI = WIND CHILL INDEX
       VSB = VISIBILITY
       HX  = HEAT INDEX
$$



USA.gov is the U.S. government's official web portal to all federal, state and local government web resources and services.